L'image de la webcam se met à jour toutes les 30s.
La jauge météo se met à jour toutes les 10s d'après les données envoyées par la station météo du club.
Les graphiques se mettent à jour toutes les 5min et ne s'affichent que si la station est en ligne
METAR de LFRD (Source NOAA)
LFRD 281700Z AUTO 06006KT CAVOK 12/09 Q1015 NOSIG

TAF de LFRD (Source NOAA)
TAF LFRD 281100Z 2812/2912 VRB05KT CAVOK TEMPO 2816/2822 08010KT TEMPO 2819/2909 4000 BR PROB30 TEMPO 2902/2907 0500 FG
Ayez la webcam en fond d'écran de votre téléphone ou de votre tablette Android avec l'appli du club.